Regional Weather Roundup
Issued by NWS

Home | Current Version | Previous Version | Text Only | Print | Product List | Glossary Off
Versions: 1 2 3 4 5 6 7 8 9 10 11 12 13 14 15 16 17 18 19 20 21 22 23 24 25 26 27 28 29 30 31 32 33 34 35 36 37 38 39 40 41 42 43 44 45 46 47 48 49 50

000
ASUS45 KABQ 230101
RWRNM
NEW MEXICO REGIONAL WEATHER ROUNDUP
NATIONAL WEATHER SERVICE ALBUQUERQUE NM
700 PM MDT SAT APR 22 2017

NOTE: "FAIR" MEANS FEW OR NO CLOUDS BELOW 12,000 FEET AGL WITH NO
       SIGNIFICANT WEATHER OR OBSTRUCTIONS TO VISION.

      THIS PRODUCT IS RELEASED AS TWO VERSIONS.  ONE VERSION NEAR
      THE TOP OF THE HOUR CONTAINING PRELIMINARY DATA FROM ALBUQUERQUE
      AND OTHER STATIONS.  A FINAL VERSION WITH ADDITIONAL DATA IS
      ISSUED ABOUT 10 MINUTES AFTER THE HOUR.

NMZ501-503-504-510>518-230200-
NORTHWEST PLATEAU/NORTHCENTRAL MOUNTAINS

CITY           SKY/WX    TMP DP  RH WIND       PRES   REMARKS
FARMINGTON     FAIR      64   7  10 W10       30.09S
LOS ALAMOS     FAIR      55  28  34 S9G17     30.21S
SANTA FE       FAIR      57  31  37 SE23G32   30.18R
TAOS             N/A     50  27  40 SE23G30   30.19R
ANGEL FIRE     CLOUDY    38  28  67 SE6       30.31S WCI  34

$$
NMZ402-403-502-505>509-230200-
WESTCENTRAL MOUNTAINS/SOUTHWEST MOUNTAINS

CITY           SKY/WX    TMP DP  RH WIND       PRES   REMARKS
GALLUP         FAIR      70  18  13 W9        30.11S
GRANTS         FAIR      66  25  21 SE17G23   30.14R
SILVER CITY    FAIR      73  28  19 SE7       30.07F

$$
NMZ407-409-411-412-230200-
SOUTHERN DESERTS

CITY           SKY/WX    TMP DP  RH WIND       PRES   REMARKS
DEMING         FAIR      79  33  19 E13       30.02S
LAS CRUCES     FAIR      72  32  23 SE16G23   30.08S
HOLLOMAN AFB   FAIR      71  35  26 S14       30.10R
ALAMOGORDO     FAIR      68  36  30 S12       30.08R
T OR C         FAIR      75  26  16 CALM      30.05S

$$
NMZ519>523-230200-
CENTRAL VALLEYS/CENTRAL HIGHLANDS

CITY           SKY/WX    TMP DP  RH WIND       PRES   REMARKS
ALBUQUERQUE    FAIR      65  31  28 E20G28    30.11R
DOUBLE EAGLE   PTCLDY    63  34  34 SE17      30.14R
MORIARTY ARPT  FAIR      59  31  34 E10       30.23R
CLINES CORNERS FAIR      50  28  42 E16G23    30.26R
BELEN          FAIR      68  28  22 SE16      30.10S
SOCORRO        FAIR      72  27  19 SE12      30.09R

$$
NMZ524>526-539-540-230200-
SOUTHCENTRAL MOUNTAINS

CITY           SKY/WX    TMP DP  RH WIND       PRES   REMARKS
RUIDOSO        NOT AVBL

$$
NMZ527>531-230200-
NORTHEAST HIGHLANDS/NORTHEAST PLAINS

CITY           SKY/WX    TMP DP  RH WIND       PRES   REMARKS
LAS VEGAS      CLOUDY    42  29  59 E12       30.30R
RATON          CLOUDY    45  29  53 SW8       30.28R
CLAYTON        FAIR      50  29  44 NE10      30.26R

$$
NMZ532>537-230200-
EASTCENTRAL PLAINS

CITY           SKY/WX    TMP DP  RH WIND       PRES   REMARKS
SANTA ROSA     FAIR      55  29  37 NE15G22   30.24R
TUCUMCARI      CLOUDY    58  29  33 NE12      30.23R
CANNON AFB     FAIR      57  29  34 NE13      30.24R
CLOVIS AIRPORT FAIR      55  30  38 E15       30.24S

$$
NMZ028-029-538-230200-
SOUTHEAST PLAINS

CITY           SKY/WX    TMP DP  RH WIND       PRES   REMARKS
ROSWELL        FAIR      66  33  29 E7          N/A
ARTESIA        FAIR      66  34  30 E7        30.17R
CARLSBAD       FAIR      67  35  30 E9        30.15R
HOBBS          FAIR      63  32  31 NE13G18   30.20R


$$




USA.gov is the U.S. government's official web portal to all federal, state and local government web resources and services.